Time,TemperatureF,DewpointF,PressureIn,WindDirection,WindDirectionDegrees,WindSpeedMPH,WindSpeedGustMPH,Humidity,HourlyPrecipIn,Conditions,Clouds,dailyrainin,SoftwareType,DateUTC
2013-02-05 00:02:00,32.2,30.9,29.93,SW,236,0.0,0.0,95,0.00,,,0.08,Wunderground v.1.15,2013-02-05 05:02:00,
2013-02-05 00:12:00,32.3,31.0,29.93,SW,236,0.0,0.0,95,0.00,,,0.00,Wunderground v.1.15,2013-02-05 05:12:00,
2013-02-05 00:22:00,32.4,31.1,29.93,SW,236,0.0,1.0,95,0.00,,,0.00,Wunderground v.1.15,2013-02-05 05:22:00,
2013-02-05 00:32:00,32.5,31.2,29.94,SW,236,0.0,0.0,95,0.00,,,0.00,Wunderground v.1.15,2013-02-05 05:32:00,
2013-02-05 00:43:00,32.3,31.0,29.95,SW,236,0.0,0.0,95,0.00,,,0.00,Wunderground v.1.15,2013-02-05 05:43:00,
2013-02-05 00:53:00,32.3,31.0,29.94,SW,236,0.0,0.0,95,0.00,,,0.00,Wunderground v.1.15,2013-02-05 05:53:00,
2013-02-05 01:03:00,32.5,31.2,29.94,SW,236,1.0,1.0,95,0.00,,,0.00,Wunderground v.1.15,2013-02-05 06:03:00,
2013-02-05 01:12:00,32.4,31.1,29.93,North,360,1.0,2.0,95,0.00,,,0.00,Wunderground v.1.15,2013-02-05 06:12:00,
2013-02-05 01:23:00,32.4,31.1,29.94,NNW,329,1.0,2.0,95,0.00,,,0.00,Wunderground v.1.15,2013-02-05 06:23:00,
2013-02-05 01:28:00,32.3,31.0,29.94,WNW,302,2.0,2.0,95,0.00,,,0.00,Wunderground v.1.15,2013-02-05 06:28:00,
2013-02-05 01:33:00,32.1,30.8,29.93,NW,315,2.0,2.0,95,0.00,,,0.00,Wunderground v.1.15,2013-02-05 06:33:00,
2013-02-05 01:43:00,31.9,30.6,29.93,NW,312,2.0,2.0,95,0.00,,,0.00,Wunderground v.1.15,2013-02-05 06:43:00,
2013-02-05 01:53:00,31.7,30.4,29.94,NW,312,1.0,1.0,95,0.00,,,0.00,Wunderground v.1.15,2013-02-05 06:53:00,
2013-02-05 02:03:00,31.6,30.3,29.94,NW,313,2.0,3.0,95,0.00,,,0.00,Wunderground v.1.15,2013-02-05 07:03:00,
2013-02-05 02:12:00,31.6,30.3,29.94,NW,307,3.0,4.0,95,0.00,,,0.00,Wunderground v.1.15,2013-02-05 07:12:00,
2013-02-05 02:22:00,31.2,29.9,29.95,NNW,338,4.0,5.0,95,0.00,,,0.00,Wunderground v.1.15,2013-02-05 07:22:00,
2013-02-05 02:33:00,30.4,28.9,29.94,North,350,4.0,4.0,94,0.00,,,0.00,Wunderground v.1.15,2013-02-05 07:33:00,
2013-02-05 02:43:00,30.1,28.6,29.94,North,350,1.0,1.0,94,0.00,,,0.00,Wunderground v.1.15,2013-02-05 07:43:00,
2013-02-05 02:52:00,29.9,28.1,29.94,North,350,1.0,3.0,93,0.00,,,0.00,Wunderground v.1.15,2013-02-05 07:52:00,
2013-02-05 03:02:00,29.4,27.4,29.94,North,351,3.0,3.0,92,0.00,,,0.00,Wunderground v.1.15,2013-02-05 08:02:00,
2013-02-05 03:13:00,28.9,26.6,29.94,NNW,333,3.0,3.0,91,0.00,,,0.00,Wunderground v.1.15,2013-02-05 08:13:00,
2013-02-05 03:18:00,28.8,26.5,29.94,NNW,333,2.0,3.0,91,0.00,,,0.00,Wunderground v.1.15,2013-02-05 08:18:00,
2013-02-05 03:33:00,28.6,26.0,29.94,NNW,333,1.0,1.0,90,0.00,,,0.00,Wunderground v.1.15,2013-02-05 08:33:00,
2013-02-05 03:42:00,28.4,25.8,29.94,NNW,333,1.0,1.0,90,0.00,,,0.00,Wunderground v.1.15,2013-02-05 08:42:00,
2013-02-05 03:53:00,28.1,25.5,29.95,NNW,333,1.0,1.0,90,0.00,,,0.00,Wunderground v.1.15,2013-02-05 08:53:00,
2013-02-05 04:03:00,28.1,25.5,29.96,NW,313,2.0,3.0,90,0.00,,,0.00,Wunderground v.1.15,2013-02-05 09:03:00,
2013-02-05 04:22:00,28.1,25.3,29.96,NW,316,1.0,3.0,89,0.00,,,0.00,Wunderground v.1.15,2013-02-05 09:22:00,
2013-02-05 04:32:00,28.0,25.2,29.95,NNW,333,3.0,3.0,89,0.00,,,0.00,Wunderground v.1.15,2013-02-05 09:32:00,
2013-02-05 04:52:00,27.6,24.8,29.95,NNW,336,2.0,2.0,89,0.00,,,0.00,Wunderground v.1.15,2013-02-05 09:52:00,
2013-02-05 05:02:00,27.6,24.8,29.95,NNW,340,3.0,4.0,89,0.00,,,0.00,Wunderground v.1.15,2013-02-05 10:02:00,
2013-02-05 05:12:00,27.5,24.7,29.95,NNW,340,1.0,1.0,89,0.00,,,0.00,Wunderground v.1.15,2013-02-05 10:12:00,
2013-02-05 05:23:00,27.3,24.5,29.95,NNW,340,1.0,1.0,89,0.00,,,0.00,Wunderground v.1.15,2013-02-05 10:23:00,
2013-02-05 05:33:00,27.1,24.6,29.95,NNW,340,1.0,1.0,90,0.00,,,0.00,Wunderground v.1.15,2013-02-05 10:33:00,
2013-02-05 05:43:00,27.0,24.5,29.95,NNW,340,0.0,1.0,90,0.00,,,0.00,Wunderground v.1.15,2013-02-05 10:43:00,
2013-02-05 05:52:00,27.0,24.5,29.96,NNW,340,0.0,0.0,90,0.00,,,0.00,Wunderground v.1.15,2013-02-05 10:52:00,
2013-02-05 06:03:00,27.0,24.5,29.96,NNW,340,1.0,1.0,90,0.00,,,0.00,Wunderground v.1.15,2013-02-05 11:03:00,
2013-02-05 06:13:00,27.0,24.5,29.96,NNW,340,1.0,3.0,90,0.00,,,0.00,Wunderground v.1.15,2013-02-05 11:13:00,
2013-02-05 06:23:00,26.9,24.1,29.96,NNW,340,2.0,3.0,89,0.00,,,0.00,Wunderground v.1.15,2013-02-05 11:23:00,
2013-02-05 06:28:00,26.8,24.0,29.96,NNW,340,2.0,3.0,89,0.00,,,0.00,Wunderground v.1.15,2013-02-05 11:28:00,
2013-02-05 06:43:00,26.4,23.9,29.96,NNW,333,2.0,3.0,90,0.00,,,0.00,Wunderground v.1.15,2013-02-05 11:43:00,
2013-02-05 06:53:00,26.1,23.3,29.96,NNW,333,0.0,3.0,89,0.00,,,0.00,Wunderground v.1.15,2013-02-05 11:53:00,
2013-02-05 07:03:00,25.6,22.8,29.96,NNW,333,1.0,1.0,89,0.00,,,0.00,Wunderground v.1.15,2013-02-05 12:03:00,
2013-02-05 07:13:00,24.8,22.0,29.97,NNW,333,1.0,1.0,89,0.00,,,0.00,Wunderground v.1.15,2013-02-05 12:13:00,
2013-02-05 07:23:00,24.4,22.2,29.98,NNW,333,1.0,1.0,91,0.00,,,0.00,Wunderground v.1.15,2013-02-05 12:23:00,
2013-02-05 07:33:00,24.1,21.9,29.98,NNW,333,1.0,1.0,91,0.00,,,0.00,Wunderground v.1.15,2013-02-05 12:33:00,
2013-02-05 07:43:00,23.6,21.4,29.98,NNW,333,0.0,2.0,91,0.00,,,0.00,Wunderground v.1.15,2013-02-05 12:43:00,
2013-02-05 07:48:00,23.1,20.9,29.99,NNW,333,1.0,3.0,91,0.00,,,0.00,Wunderground v.1.15,2013-02-05 12:48:00,
2013-02-05 07:58:00,23.1,21.1,29.98,NNW,333,1.0,2.0,92,0.00,,,0.00,Wunderground v.1.15,2013-02-05 12:58:00,
2013-02-05 08:12:00,23.0,21.0,29.99,NNW,333,0.0,0.0,92,0.00,,,0.00,Wunderground v.1.15,2013-02-05 13:12:00,
2013-02-05 08:22:00,22.7,20.7,30.00,NNW,333,0.0,0.0,92,0.00,,,0.00,Wunderground v.1.15,2013-02-05 13:22:00,
2013-02-05 08:32:00,22.1,19.9,30.01,NNW,333,0.0,2.0,91,0.00,,,0.00,Wunderground v.1.15,2013-02-05 13:32:00,
2013-02-05 08:43:00,23.0,21.3,30.01,NNW,333,1.0,2.0,93,0.00,,,0.00,Wunderground v.1.15,2013-02-05 13:43:00,
2013-02-05 08:53:00,23.6,21.9,30.00,NNW,333,1.0,3.0,93,0.00,,,0.00,Wunderground v.1.15,2013-02-05 13:53:00,
2013-02-05 09:03:00,24.4,22.7,30.00,NNW,333,1.0,1.0,93,0.00,,,0.00,Wunderground v.1.15,2013-02-05 14:03:00,
2013-02-05 09:13:00,24.8,22.8,30.00,NNW,336,2.0,2.0,92,0.00,,,0.00,Wunderground v.1.15,2013-02-05 14:13:00,
2013-02-05 09:23:00,25.0,22.7,30.00,NNW,336,1.0,1.0,91,0.00,,,0.00,Wunderground v.1.15,2013-02-05 14:23:00,
2013-02-05 09:33:00,25.2,22.7,30.00,NNW,336,1.0,1.0,90,0.00,,,0.00,Wunderground v.1.15,2013-02-05 14:33:00,
2013-02-05 09:42:00,25.7,23.2,30.00,NNW,336,0.0,1.0,90,0.00,,,0.00,Wunderground v.1.15,2013-02-05 14:42:00,
2013-02-05 09:53:00,26.1,23.6,30.01,NNW,336,0.0,0.0,90,0.00,,,0.00,Wunderground v.1.15,2013-02-05 14:53:00,
2013-02-05 10:03:00,26.8,24.0,30.01,NNW,336,0.0,0.0,89,0.00,,,0.00,Wunderground v.1.15,2013-02-05 15:03:00,
2013-02-05 10:08:00,26.9,23.8,30.01,NNW,336,0.0,0.0,88,0.00,,,0.00,Wunderground v.1.15,2013-02-05 15:08:00,
2013-02-05 10:23:00,26.9,23.5,30.00,NNW,336,1.0,2.0,87,0.00,,,0.00,Wunderground v.1.15,2013-02-05 15:23:00,
2013-02-05 10:28:00,26.7,23.4,30.01,NNW,336,1.0,2.0,87,0.00,,,0.00,Wunderground v.1.15,2013-02-05 15:28:00,
2013-02-05 10:43:00,26.9,23.8,30.01,NNW,336,0.0,0.0,88,0.00,,,0.00,Wunderground v.1.15,2013-02-05 15:43:00,
2013-02-05 10:53:00,27.1,23.7,30.01,NNW,336,0.0,0.0,87,0.00,,,0.00,Wunderground v.1.15,2013-02-05 15:53:00,
2013-02-05 11:03:00,27.8,24.2,30.02,WSW,257,1.0,3.0,86,0.00,,,0.00,Wunderground v.1.15,2013-02-05 16:03:00,
2013-02-05 11:13:00,28.1,24.5,30.02,WSW,257,1.0,1.0,86,0.00,,,0.00,Wunderground v.1.15,2013-02-05 16:13:00,
2013-02-05 11:23:00,28.3,24.6,30.02,WSW,248,1.0,1.0,86,0.00,,,0.01,Wunderground v.1.15,2013-02-05 16:23:00,
2013-02-05 11:33:00,28.6,24.7,30.01,WSW,248,1.0,1.0,85,0.00,,,0.01,Wunderground v.1.15,2013-02-05 16:33:00,
2013-02-05 11:43:00,29.0,25.1,30.02,WSW,248,0.0,2.0,85,0.00,,,0.01,Wunderground v.1.15,2013-02-05 16:43:00,
2013-02-05 11:53:00,29.3,25.1,30.01,WSW,248,2.0,3.0,84,0.00,,,0.01,Wunderground v.1.15,2013-02-05 16:53:00,
2013-02-05 12:02:00,29.8,25.6,30.01,South,188,1.0,2.0,84,0.00,,,0.01,Wunderground v.1.15,2013-02-05 17:02:00,
2013-02-05 12:13:00,29.7,25.5,30.00,SSW,213,3.0,3.0,84,0.00,,,0.01,Wunderground v.1.15,2013-02-05 17:13:00,
2013-02-05 12:23:00,29.7,25.5,30.00,South,184,3.0,3.0,84,0.00,,,0.01,Wunderground v.1.15,2013-02-05 17:23:00,
2013-02-05 12:33:00,30.3,26.0,29.99,South,184,2.0,3.0,84,0.00,,,0.01,Wunderground v.1.15,2013-02-05 17:33:00,
2013-02-05 12:38:00,30.3,25.8,29.99,South,184,2.0,3.0,83,0.00,,,0.01,Wunderground v.1.15,2013-02-05 17:38:00,
2013-02-05 12:52:00,30.1,25.6,29.97,SSW,197,4.0,4.0,83,0.00,,,0.01,Wunderground v.1.15,2013-02-05 17:52:00,
2013-02-05 13:02:00,30.5,25.7,29.97,SSW,200,3.0,3.0,82,0.00,,,0.01,Wunderground v.1.15,2013-02-05 18:02:00,
2013-02-05 13:13:00,30.7,25.9,29.96,South,169,3.0,3.0,82,0.00,,,0.01,Wunderground v.1.15,2013-02-05 18:13:00,
2013-02-05 13:23:00,30.7,25.6,29.95,South,173,3.0,3.0,81,0.00,,,0.01,Wunderground v.1.15,2013-02-05 18:23:00,
2013-02-05 13:33:00,30.8,25.7,29.95,SSW,196,3.0,5.0,81,0.00,,,0.01,Wunderground v.1.15,2013-02-05 18:33:00,
2013-02-05 13:43:00,30.8,25.7,29.95,South,189,3.0,4.0,81,0.00,,,0.01,Wunderground v.1.15,2013-02-05 18:43:00,
2013-02-05 13:53:00,30.8,26.0,29.95,South,190,2.0,4.0,82,0.00,,,0.01,Wunderground v.1.15,2013-02-05 18:53:00,
2013-02-05 14:03:00,30.9,25.8,29.95,SSW,192,3.0,5.0,81,0.00,,,0.01,Wunderground v.1.15,2013-02-05 19:03:00,
2013-02-05 14:12:00,30.8,25.7,29.95,South,184,4.0,5.0,81,0.00,,,0.01,Wunderground v.1.15,2013-02-05 19:12:00,
2013-02-05 14:23:00,31.1,26.0,29.95,SSW,209,3.0,5.0,81,0.00,,,0.01,Wunderground v.1.15,2013-02-05 19:23:00,
2013-02-05 14:33:00,31.1,26.2,29.95,South,173,4.0,4.0,82,0.00,,,0.01,Wunderground v.1.15,2013-02-05 19:33:00,
2013-02-05 14:42:00,31.3,26.4,29.94,South,180,3.0,3.0,82,0.00,,,0.01,Wunderground v.1.15,2013-02-05 19:42:00,
2013-02-05 14:53:00,31.4,26.8,29.94,SSW,211,3.0,3.0,83,0.00,,,0.01,Wunderground v.1.15,2013-02-05 19:53:00,
2013-02-05 14:58:00,31.5,26.6,29.94,SSW,202,3.0,3.0,82,0.00,,,0.01,Wunderground v.1.15,2013-02-05 19:58:00,
2013-02-05 15:13:00,32.1,27.5,29.94,SSW,209,2.0,2.0,83,0.00,,,0.01,Wunderground v.1.15,2013-02-05 20:13:00,
2013-02-05 15:23:00,32.5,27.6,29.92,South,170,2.0,8.0,82,0.00,,,0.01,Wunderground v.1.15,2013-02-05 20:23:00,
2013-02-05 15:33:00,32.8,27.9,29.92,South,169,4.0,5.0,82,0.00,,,0.01,Wunderground v.1.15,2013-02-05 20:33:00,
2013-02-05 15:43:00,32.9,28.3,29.93,South,182,2.0,3.0,83,0.00,,,0.01,Wunderground v.1.15,2013-02-05 20:43:00,
2013-02-05 15:48:00,33.0,28.4,29.92,SSE,160,2.0,3.0,83,0.00,,,0.01,Wunderground v.1.15,2013-02-05 20:48:00,
2013-02-05 16:03:00,33.2,28.6,29.91,SSE,164,3.0,3.0,83,0.00,,,0.02,Wunderground v.1.15,2013-02-05 21:03:00,
2013-02-05 16:12:00,33.6,29.0,29.91,SSW,206,3.0,3.0,83,0.00,,,0.02,Wunderground v.1.15,2013-02-05 21:12:00,
2013-02-05 16:22:00,33.9,29.3,29.91,South,180,2.0,4.0,83,0.00,,,0.02,Wunderground v.1.15,2013-02-05 21:22:00,
2013-02-05 16:28:00,34.1,29.5,29.91,South,176,2.0,4.0,83,0.00,,,0.02,Wunderground v.1.15,2013-02-05 21:28:00,
2013-02-05 16:43:00,34.4,29.8,29.91,South,188,3.0,3.0,83,0.00,,,0.02,Wunderground v.1.15,2013-02-05 21:43:00,
2013-02-05 16:52:00,34.6,30.0,29.92,SSW,210,2.0,2.0,83,0.00,,,0.02,Wunderground v.1.15,2013-02-05 21:52:00,
2013-02-05 17:03:00,34.7,30.1,29.92,South,174,2.0,2.0,83,0.00,,,0.02,Wunderground v.1.15,2013-02-05 22:03:00,
2013-02-05 17:13:00,34.8,30.2,29.92,South,175,1.0,2.0,83,0.00,,,0.02,Wunderground v.1.15,2013-02-05 22:13:00,
2013-02-05 17:23:00,34.9,30.6,29.92,SSW,194,2.0,4.0,84,0.00,,,0.02,Wunderground v.1.15,2013-02-05 22:23:00,
2013-02-05 17:28:00,35.0,30.7,29.92,SSW,211,3.0,4.0,84,0.00,,,0.02,Wunderground v.1.15,2013-02-05 22:28:00,
2013-02-05 17:38:00,34.9,30.8,29.92,SSW,211,1.0,2.0,85,0.00,,,0.02,Wunderground v.1.15,2013-02-05 22:38:00,
2013-02-05 17:53:00,34.7,30.7,29.92,SSW,211,1.0,1.0,85,0.00,,,0.02,Wunderground v.1.15,2013-02-05 22:53:00,
2013-02-05 18:02:00,34.5,30.5,29.92,SSW,211,0.0,0.0,85,0.00,,,0.02,Wunderground v.1.15,2013-02-05 23:02:00,
2013-02-05 18:13:00,34.3,30.5,29.93,SSW,211,0.0,0.0,86,0.00,,,0.02,Wunderground v.1.15,2013-02-05 23:13:00,
2013-02-05 18:23:00,34.1,30.4,29.93,SSW,211,0.0,0.0,86,0.00,,,0.02,Wunderground v.1.15,2013-02-05 23:23:00,
2013-02-05 18:33:00,33.9,30.2,29.94,SSW,211,1.0,1.0,86,0.00,,,0.02,Wunderground v.1.15,2013-02-05 23:33:00,
2013-02-05 18:43:00,33.9,30.4,29.95,SSW,211,1.0,1.0,87,0.00,,,0.02,Wunderground v.1.15,2013-02-05 23:43:00,
2013-02-05 18:53:00,33.8,30.3,29.96,SSW,211,1.0,1.0,87,0.00,,,0.02,Wunderground v.1.15,2013-02-05 23:53:00,
2013-02-05 19:03:00,33.7,30.2,29.97,West,265,1.0,1.0,87,0.00,,,0.02,Wunderground v.1.15,2013-02-06 00:03:00,
2013-02-05 19:08:00,33.8,30.6,29.97,WSW,254,2.0,4.0,88,0.00,,,0.02,Wunderground v.1.15,2013-02-06 00:08:00,
2013-02-05 19:18:00,34.4,30.9,29.98,West,259,4.0,5.0,87,0.00,,,0.02,Wunderground v.1.15,2013-02-06 00:18:00,
2013-02-05 19:28:00,34.7,30.9,29.98,NW,305,3.0,6.0,86,0.00,,,0.02,Wunderground v.1.15,2013-02-06 00:28:00,
2013-02-05 19:43:00,34.8,31.0,29.99,NNW,327,3.0,5.0,86,0.00,,,0.02,Wunderground v.1.15,2013-02-06 00:43:00,
2013-02-05 19:52:00,34.9,30.8,30.00,WNW,298,3.0,3.0,85,0.00,,,0.02,Wunderground v.1.15,2013-02-06 00:52:00,
2013-02-05 20:03:00,35.1,30.8,30.00,WSW,244,4.0,4.0,84,0.00,,,0.02,Wunderground v.1.15,2013-02-06 01:03:00,
2013-02-05 20:13:00,35.2,30.9,30.00,West,281,4.0,8.0,84,0.00,,,0.02,Wunderground v.1.15,2013-02-06 01:13:00,
2013-02-05 20:23:00,35.3,30.7,30.00,West,265,5.0,5.0,83,0.00,,,0.02,Wunderground v.1.15,2013-02-06 01:23:00,
2013-02-05 20:33:00,35.5,30.8,30.00,West,259,5.0,9.0,83,0.00,,,0.02,Wunderground v.1.15,2013-02-06 01:33:00,
2013-02-05 20:38:00,35.6,30.9,30.00,WNW,284,5.0,9.0,83,0.00,,,0.02,Wunderground v.1.15,2013-02-06 01:38:00,
2013-02-05 20:53:00,35.6,30.9,30.01,WNW,289,4.0,4.0,83,0.00,,,0.02,Wunderground v.1.15,2013-02-06 01:53:00,
2013-02-05 21:02:00,35.6,30.9,30.01,West,259,4.0,4.0,83,0.00,,,0.02,Wunderground v.1.15,2013-02-06 02:02:00,
2013-02-05 21:13:00,35.6,31.2,30.01,WSW,250,4.0,5.0,84,0.00,,,0.02,Wunderground v.1.15,2013-02-06 02:13:00,
2013-02-05 21:18:00,35.6,31.2,30.01,WSW,258,5.0,5.0,84,0.00,,,0.02,Wunderground v.1.15,2013-02-06 02:18:00,
2013-02-05 21:33:00,35.7,31.3,30.02,West,279,3.0,3.0,84,0.00,,,0.02,Wunderground v.1.15,2013-02-06 02:33:00,
2013-02-05 21:43:00,35.8,31.4,30.02,West,267,2.0,2.0,84,0.00,,,0.02,Wunderground v.1.15,2013-02-06 02:43:00,
2013-02-05 21:53:00,35.8,31.4,30.03,SW,227,3.0,3.0,84,0.00,,,0.02,Wunderground v.1.15,2013-02-06 02:53:00,
2013-02-05 22:03:00,35.8,31.4,30.04,West,264,2.0,3.0,84,0.00,,,0.02,Wunderground v.1.15,2013-02-06 03:03:00,
2013-02-05 22:08:00,35.8,31.4,30.04,West,264,2.0,5.0,84,0.00,,,0.02,Wunderground v.1.15,2013-02-06 03:08:00,
2013-02-05 22:23:00,35.9,31.5,30.05,West,265,3.0,4.0,84,0.00,,,0.02,Wunderground v.1.15,2013-02-06 03:23:00,
2013-02-05 22:33:00,35.9,31.5,30.05,West,273,3.0,3.0,84,0.00,,,0.02,Wunderground v.1.15,2013-02-06 03:33:00,
2013-02-05 22:43:00,36.0,31.9,30.06,NW,304,4.0,4.0,85,0.00,,,0.02,Wunderground v.1.15,2013-02-06 03:43:00,
2013-02-05 22:53:00,35.9,31.8,30.06,West,278,3.0,3.0,85,0.00,,,0.02,Wunderground v.1.15,2013-02-06 03:53:00,
2013-02-05 23:03:00,35.9,31.8,30.06,NNW,339,3.0,4.0,85,0.00,,,0.02,Wunderground v.1.15,2013-02-06 04:03:00,
2013-02-05 23:13:00,35.9,31.8,30.07,NW,315,4.0,4.0,85,0.00,,,0.02,Wunderground v.1.15,2013-02-06 04:13:00,
2013-02-05 23:22:00,35.7,31.6,30.07,NNW,329,3.0,5.0,85,0.00,,,0.02,Wunderground v.1.15,2013-02-06 04:22:00,
2013-02-05 23:33:00,35.6,31.5,30.07,NNW,346,3.0,3.0,85,0.00,,,0.02,Wunderground v.1.15,2013-02-06 04:33:00,
2013-02-05 23:43:00,35.4,31.6,30.07,WNW,290,3.0,3.0,86,0.00,,,0.02,Wunderground v.1.15,2013-02-06 04:43:00,
2013-02-05 23:53:00,35.2,31.4,30.08,NW,320,3.0,5.0,86,0.00,,,0.02,Wunderground v.1.15,2013-02-06 04:53:00,